Regional Weather Roundup
Issued by NWS Northern Indiana

Home | Current Version | Previous Version | Graphics & Text | Print | Product List | Glossary On
Versions: 1 2 3 4 5 6 7 8 9 10 11 12 13 14 15 16 17 18 19 20 21 22 23 24 25 26 27 28 29 30 31 32 33 34 35 36 37 38 39 40 41 42 43 44 45 46 47 48 49 50
000
ASUS43 KIWX 230710
RWRIWX

KIWX WEATHER ROUNDUP
NATIONAL WEATHER SERVICE NORTHERN INDIANA
300 AM EDT MON APR 23 2018

NOTE: "FAIR" INDICATES FEW OR NO CLOUDS BELOW 12,000 FEET WITH NO
SIGNIFICANT WEATHER AND/OR OBSTRUCTIONS TO VISIBILITY.

* THESE STATIONS ARE NOT UNDER NWS QUALITY CONTROL. THEY ALSO MAY NOT
  REPORT WEATHER SUCH AS PRECIPITATION OR FOG.

INZ001>027-230800-
NORTHERN INDIANA

CITY           SKY/WX    TMP DP  RH WIND       PRES   REMARKS
GARY*          FAIR      43  31  63 NE3       30.21F
VALPARAISO     FAIR      44  24  45 E9        30.20F
MICHIGAN CITY* FAIR      46  21  36 E5        30.22F
LAPORTE*       FAIR      43  24  46 E9        30.21F
KNOX*          FAIR      43  23  45 NE7       30.19F
SOUTH BEND     FAIR      45  20  36 E7        30.22F
GOSHEN         FAIR      43  24  47 E9        30.21F
MONTICELLO*    FAIR      47  20  33 E9        30.16F
LOGANSPORT*    FAIR      45  23  42 NE8       30.18F
ROCHESTER*     FAIR      46  23  39 E7        30.18F
WARSAW*        FAIR      43  25  49 E8G16     30.20F
AUBURN*        FAIR      43  28  56 NE10      30.22F
FORT WAYNE     MOCLDY    43  27  53 NE12      30.19F
HUNTINGTON*    FAIR      43  25  48 E7        30.19F
PERU/GRISSOM   FAIR     N/A N/A N/A NE12        N/A
MARION*        FAIR      44  25  47 E8        30.16F

$$
INZ028>050-230800-
CENTRAL INDIANA

CITY           SKY/WX    TMP DP  RH WIND       PRES   REMARKS
LAFAYETTE      FAIR      47  24  40 E14       30.14F
KOKOMO*        FAIR      43  27  53 NE9       30.17F
MUNCIE*        FAIR      46  28  49 E9        30.15F
INDIANAPOLIS   MOCLDY    49  30  48 NE13      30.11F

$$
MIZ043>046-050>051-056>058-064>065-071>073-077>080-230800-
SOUTHWEST LOWER MICHIGAN

CITY           SKY/WX    TMP DP  RH WIND       PRES   REMARKS
BATTLE CREEK   FAIR      45  23  42 E6        30.26F
BENTON HARBOR  FAIR      44  23  43 E8        30.23F
COLDWATER*     FAIR      44  21  40 E7        30.24F
HILLSDALE*     FAIR      45  21  39 E13       30.23F
HOLLAND        FAIR      43  26  51 NE5       30.26F
GRAND RAPIDS   FAIR      41  29  62 NE9       30.27F
KALAMAZOO      FAIR      45  23  42 E5        30.25F
STURGIS*       FAIR      44  23  43 E8        30.22F
THREE RIVERS*  FAIR      43  26  50 CALM      30.24F

$$
OHZ001>008-015>018-024>025-230800-
NORTHWEST OHIO

CITY           SKY/WX    TMP DP  RH WIND       PRES   REMARKS
WAUSEON*       FAIR      41  25  52 NE10      30.24F
DEFIANCE       FAIR      42  28  57 NE6       30.23F
FINDLAY        FAIR      45  25  45 NE10      30.19F
TOLEDO EXPRESS FAIR      46  31  55 E12       30.24F
TOLEDO METCALF FAIR      44  33  65 NE9       30.25F
LIMA           FAIR      42  28  57 NE9       30.18F

$$
AND FOR LAKE MICHIGAN COASTAL AND OPEN LAKE BUOY OBSERVATIONS

STATION/POSITION TEMP    WIND        PRES    VSBY  WAVE
                 AIR SEA DIR/SP/G                  HT/PER
                 (F)     (DEG/KT/KT) (MB)    (MI)  (FT/S)
CALUMET HARBOR    42      10/  5/  6 1022.4F
MICHIGAN CITY     49      70/  9/  9   N/A
BURNS HARBOR      49      90/  8/ 11 1023.4F
SAINT JOSEPH      47      30/  2/  3 1023.7

$$
&&




USA.gov is the U.S. government's official web portal to all federal, state and local government web resources and services.